| time (UTC) | temp F | wind direction | speed MPH | gust MPH | rain 1hr in | rain 24hr in | rain mn in | humidity % | barometer mb |
| 20260504003623 | 75 | 202 | 3.0 | 6.0 | 0.00 | 0.00 | 0.00 | 45 | 1015.6 |
| 20260504002623 | 75 | 166 | 4.0 | 7.0 | 0.00 | 0.00 | 0.00 | 44 | 1015.6 |
| 20260504000623 | 76 | 155 | 2.0 | 9.0 | 0.00 | 0.00 | 0.00 | 41 | 1016.0 |
| 20260503233623 | 76 | 167 | 5.0 | 8.0 | 0.00 | 0.00 | 0.00 | 42 | 1016.2 |
| 20260503232624 | 76 | 174 | 6.0 | 11.0 | 0.00 | 0.00 | 0.00 | 40 | 1016.2 |
| 20260503230623 | 78 | 228 | 4.0 | 9.0 | 0.00 | 0.00 | 0.00 | 40 | 1016.1 |
| 20260503225623 | 78 | 164 | 1.0 | 12.0 | 0.00 | 0.00 | 0.00 | 40 | 1016.3 |
| 20260503224623 | 78 | 126 | 4.0 | 11.0 | 0.00 | 0.00 | 0.00 | 40 | 1016.3 |
| 20260503223623 | 79 | 161 | 6.0 | 11.0 | 0.00 | 0.00 | 0.00 | 40 | 1016.4 |
| 20260503222623 | 79 | 196 | 3.0 | 14.0 | 0.00 | 0.00 | 0.00 | 38 | 1016.5 |
| 20260503221623 | 79 | 166 | 6.0 | 10.0 | 0.00 | 0.00 | 0.00 | 39 | 1016.7 |
| 20260503220623 | 79 | 117 | 6.0 | 11.0 | 0.00 | 0.00 | 0.00 | 37 | 1016.8 |
| 20260503215623 | 79 | 196 | 6.0 | 15.0 | 0.00 | 0.00 | 0.00 | 38 | 1016.9 |
| 20260503214623 | 79 | 141 | 5.0 | 12.0 | 0.00 | 0.00 | 0.00 | 39 | 1017.0 |
| 20260503212623 | 79 | 142 | 2.0 | 16.0 | 0.00 | 0.00 | 0.00 | 40 | 1017.5 |
| 20260503211623 | 78 | 187 | 4.0 | 12.0 | 0.00 | 0.00 | 0.00 | 36 | 1017.6 |
| 20260503210623 | 79 | 107 | 7.0 | 12.0 | 0.00 | 0.00 | 0.00 | 37 | 1018.0 |
| 20260503205623 | 79 | 142 | 5.0 | 12.0 | 0.00 | 0.00 | 0.00 | 36 | 1018.0 |
| 20260503204623 | 80 | 132 | 10.0 | 13.0 | 0.00 | 0.00 | 0.00 | 42 | 1018.1 |
| 20260503203623 | 80 | 130 | 5.0 | 11.0 | 0.00 | 0.00 | 0.00 | 38 | 1018.1 |
| 20260503201623 | 79 | 178 | 5.0 | 16.0 | 0.00 | 0.00 | 0.00 | 41 | 1018.8 |
| 20260503195623 | 79 | 168 | 5.0 | 11.0 | 0.00 | 0.00 | 0.00 | 41 | 1019.1 |
| 20260503194623 | 78 | 101 | 10.0 | 12.0 | 0.00 | 0.00 | 0.00 | 40 | 1019.0 |
| 20260503193623 | 79 | 132 | 12.0 | 15.0 | 0.00 | 0.00 | 0.00 | 38 | 1019.3 |
| 20260503192623 | 78 | 173 | 7.0 | 14.0 | 0.00 | 0.00 | 0.00 | 39 | 1019.5 |
| 20260503191623 | 78 | 132 | 8.0 | 13.0 | 0.00 | 0.00 | 0.00 | 37 | 1019.6 |
| 20260503190623 | 78 | 132 | 3.0 | 10.0 | 0.00 | 0.00 | 0.00 | 43 | 1019.6 |
| 20260503185623 | 78 | 142 | 3.0 | 11.0 | 0.00 | 0.00 | 0.00 | 39 | 1020.0 |
| 20260503184623 | 78 | 132 | 9.0 | 15.0 | 0.00 | 0.00 | 0.00 | 42 | 1020.2 |
| 20260503183623 | 78 | 140 | 5.0 | 14.0 | 0.00 | 0.00 | 0.00 | 41 | 1020.2 |
| 20260503181623 | 77 | 142 | 4.0 | 11.0 | 0.00 | 0.00 | 0.00 | 41 | 1020.5 |
| 20260503180623 | 77 | 189 | 7.0 | 12.0 | 0.00 | 0.00 | 0.00 | 45 | 1020.9 |
| 20260503175623 | 77 | 114 | 3.0 | 10.0 | 0.00 | 0.00 | 0.00 | 43 | 1021.0 |
| 20260503174623 | 77 | 178 | 4.0 | 12.0 | 0.00 | 0.00 | 0.00 | 40 | 1021.2 |
| 20260503173623 | 77 | 146 | 4.0 | 11.0 | 0.00 | 0.00 | 0.00 | 42 | 1021.2 |
| 20260503172623 | 77 | 249 | 5.0 | 11.0 | 0.00 | 0.00 | 0.00 | 42 | 1021.4 |
| 20260503171623 | 77 | 101 | 4.0 | 12.0 | 0.00 | 0.00 | 0.00 | 39 | 1021.4 |
| 20260503170623 | 77 | 189 | 3.0 | 9.0 | 0.00 | 0.00 | 0.00 | 41 | 1021.6 |
| 20260503150623 | 72 | 198 | 7.0 | 10.0 | 0.00 | 0.00 | 0.00 | 56 | 1022.2 |
| 20260503130623 | 61 | 220 | 4.0 | 5.0 | 0.00 | 0.00 | 0.00 | 73 | 1021.6 |
| 20260503110623 | 53 | 229 | 0.0 | 0.0 | 0.00 | 0.00 | 0.00 | 81 | 1020.6 |
| 20260503081622 | 58 | 230 | 0.0 | 0.0 | 0.00 | 0.00 | 0.00 | 77 | 1020.3 |
| 20260503080623 | 56 | 230 | 0.0 | 2.0 | 0.00 | 0.00 | 0.00 | 80 | 1020.3 |
| 20260503071622 | 59 | 230 | 0.0 | 0.0 | 0.00 | 0.00 | 0.00 | 73 | 1020.6 |
| 20260503070622 | 60 | 230 | 0.0 | 2.0 | 0.00 | 0.00 | 0.00 | 73 | 1020.7 |
| 20260503053623 | 62 | 229 | 2.0 | 3.0 | 0.00 | 0.00 | 0.00 | 68 | 1021.0 |
| 20260503051622 | 62 | 196 | 2.0 | 3.0 | 0.00 | 0.00 | 0.00 | 68 | 1021.0 |
| 20260503050622 | 62 | 193 | 2.0 | 3.0 | 0.00 | 0.00 | 0.00 | 68 | 1020.9 |
| 20260503045622 | 62 | 193 | 1.0 | 3.0 | 0.00 | 0.00 | 0.01 | 68 | 1020.8 |
| 20260503043622 | 62 | 200 | 3.0 | 3.0 | 0.00 | 0.00 | 0.01 | 70 | 1020.9 |
| 20260503042622 | 60 | 210 | 2.0 | 3.0 | 0.00 | 0.00 | 0.01 | 73 | 1020.8 |
| 20260503041622 | 60 | 117 | 0.0 | 0.0 | 0.00 | 0.00 | 0.01 | 73 | 1020.7 |
| 20260503040623 | 60 | 117 | 0.0 | 0.0 | 0.00 | 0.00 | 0.01 | 73 | 1020.7 |
| 20260503035622 | 61 | 117 | 0.0 | 0.0 | 0.00 | 0.00 | 0.01 | 72 | 1020.7 |
| 20260503034622 | 61 | 117 | 0.0 | 0.0 | 0.00 | 0.00 | 0.01 | 72 | 1020.6 |
| 20260503033622 | 61 | 117 | 0.0 | 0.0 | 0.00 | 0.00 | 0.01 | 73 | 1020.5 |
| 20260503032622 | 61 | 117 | 0.0 | 0.0 | 0.00 | 0.00 | 0.01 | 73 | 1020.5 |
| 20260503025622 | 62 | 117 | 0.0 | 0.0 | 0.00 | 0.00 | 0.01 | 72 | 1020.3 |
| 20260503024622 | 62 | 117 | 0.0 | 0.0 | 0.00 | 0.00 | 0.01 | 71 | 1020.1 |
| 20260503023622 | 62 | 117 | 0.0 | 0.0 | 0.00 | 0.00 | 0.01 | 70 | 1019.8 |
| 20260503022622 | 63 | 117 | 0.0 | 0.0 | 0.00 | 0.00 | 0.01 | 69 | 1019.7 |
| 20260503021622 | 64 | 117 | 0.0 | 0.0 | 0.00 | 0.00 | 0.01 | 68 | 1019.6 |
| 20260503020622 | 64 | 117 | 0.0 | 0.0 | 0.00 | 0.00 | 0.01 | 66 | 1019.6 |
| 20260503014623 | 66 | 117 | 0.0 | 0.0 | 0.00 | 0.00 | 0.01 | 63 | 1019.5 |
| 20260503013622 | 66 | 117 | 0.0 | 0.0 | 0.00 | 0.00 | 0.01 | 63 | 1019.5 |
| 20260503012622 | 67 | 117 | 0.0 | 0.0 | 0.00 | 0.00 | 0.01 | 62 | 1019.5 |
| 20260503011622 | 68 | 117 | 0.0 | 0.0 | 0.00 | 0.00 | 0.01 | 61 | 1019.3 |
| 20260503010622 | 69 | 117 | 0.0 | 0.0 | 0.00 | 0.00 | 0.01 | 59 | 1019.3 |
| 20260503005622 | 70 | 117 | 0.0 | 2.0 | 0.00 | 0.00 | 0.01 | 57 | 1019.3 |
| 20260503004622 | 70 | 95 | 2.0 | 3.0 | 0.00 | 0.00 | 0.01 | 54 | 1019.2 |